Date,TemperatureHighF,TemperatureAvgF,TemperatureLowF,DewpointHighF,DewpointAvgF,DewpointLowF,HumidityHigh,HumidityAvg,HumidityLow,PressureMaxIn,PressureMinIn,WindSpeedMaxMPH,WindSpeedAvgMPH,GustSpeedMaxMPH,PrecipitationSumIn
2013-2-1,30,26,21,17,8,3,70,46,34,0.00,40.00,17,8,32,0.00
2013-2-2,29,23,12,14,7,0,72,52,33,0.00,40.00,15,6,24,0.00
2013-2-3,30,24,16,17,14,10,91,67,47,0.00,40.00,9,2,10,0.00
2013-2-4,28,23,15,14,9,4,78,56,37,0.00,40.00,14,4,25,0.00
2013-2-5,30,23,15,23,13,9,89,65,46,0.00,40.00,8,2,14,0.00
2013-2-6,36,28,23,26,17,0,94,66,32,0.00,40.00,10,4,21,0.00
2013-2-7,31,22,12,9,5,1,81,50,30,0.00,40.00,7,2,10,0.00
2013-2-8,27,24,19,26,17,5,95,76,39,0.00,40.00,17,8,32,0.00
2013-2-9,27,22,17,20,7,-6,94,56,30,0.00,40.00,21,12,41,0.00
2013-2-10,36,24,9,8,1,-5,69,37,23,0.00,40.00,6,3,10,0.00
2013-2-11,33,24,15,32,22,10,100,92,79,0.00,40.00,6,1,15,0.00
2013-2-12,41,38,33,33,26,20,100,63,53,0.00,40.00,15,5,30,0.00
2013-2-13,39,34,30,23,22,20,72,60,49,0.00,40.00,12,5,20,0.00
2013-2-14,43,32,20,24,21,17,87,65,39,0.00,40.00,8,2,12,0.00
2013-2-15,47,29,24,31,23,20,92,80,54,0.00,40.00,9,2,16,0.00
2013-2-16,37,32,28,31,26,6,98,79,43,0.00,40.00,8,3,21,0.00
2013-2-17,27,23,14,6,2,-2,48,41,30,0.00,40.00,24,14,39,0.00
2013-2-18,28,20,12,3,-1,-4,54,41,24,0.00,40.00,14,4,29,0.00
2013-2-19,43,28,14,38,18,3,99,69,42,0.00,40.00,15,3,28,0.00
2013-2-20,33,28,26,25,11,9,71,49,37,0.00,40.00,17,8,30,0.00
2013-2-21,29,26,22,16,11,7,62,54,44,0.00,40.00,18,8,33,0.00
2013-2-22,40,34,23,23,20,17,77,57,44,0.00,40.00,5,3,8,0.00
2013-2-23,34,33,32,33,29,25,99,86,74,0.00,40.00,5,3,7,0.00
2013-2-24,38,35,33,35,34,30,99,93,86,0.00,40.00,9,4,14,0.00
2013-2-25,35,31,28,31,28,25,94,88,83,0.00,40.00,9,4,16,0.00
2013-2-26,40,35,31,31,28,26,84,75,62,0.00,40.00,7,2,12,0.00
2013-2-27,38,35,32,38,34,28,100,96,76,0.00,40.00,13,8,23,0.00
2013-2-28,40,33,31,35,32,31,100,98,83,0.00,40.00,6,2,13,0.00